Tracking 23645 objects as of 21-Sep-2021
HD Live streaming from Space Station
objects crossing your sky now

SAKURA 2A (CS-2A)

Track SAKURA 2A (CS-2A) now!
SAKURA 2A (CS-2A) is classified as:


NORAD ID: 13782
Int'l Code: 1983-006A
Perigee: 36,006.0 km
Apogee: 36,068.5 km
Inclination: 13.1 °
Period: 1,448.6 minutes
Semi major axis: 42408 km
RCS: 5.8102 m2 (large)
Launch date: February 4, 1983
Source: Japan (JPN)
Launch site: TANEGASHIMA SPACE CENTER (TNSTA)
aabbcc
Your satellite tracking list
Your tracking list is empty




NASA's NSSDC Master Catalog

Two Line Element Set (TLE):
1 13782U 83006A   21264.34921192 -.00000284  00000-0  00000-0 0  9999
2 13782  13.0824 333.5268 0007373 281.1479 200.7633  0.99409286110654
Source of the keplerian elements: AFSPC